Hourly Data Report for May 10, 2017

FISHER BRANCH (AUT)
MANITOBA

51°05'00.100" N
97°33'16.200" W
253.00 m
50309J6
71442
WSZ

Download Data

Hourly Data (May 2017)
Hourly Data Report for May 10, 2017
TIME
LST
Temp Definition
°C
Dew Point Definition
°C
Rel Hum Definition
%
Precip. Amount Definition
mm

Wind Dir Definition
10's deg

Wind Spd Definition
km/h
Visibility Definition
km
Stn Press Definition
kPa
Hmdx Definition


Wind Chill Definition


Weather Definition


00:00 3.4 1.4 87 0.0 31 19   98.17     LegendNANA
01:00 3.0 1.0 87 0.0 32 19   98.17     LegendNANA
02:00 2.8 0.3 83 0.0 33 14   98.19     LegendNANA
03:00 2.6 -0.1 83 0.0 30 11   98.23     LegendNANA
04:00 2.2 -1.1 79 0.0 32 12   98.25     LegendNANA
05:00 1.9 -2.3 74 0.0 33 14   98.29     LegendNANA
06:00 1.8 -2.2 75 0.0 31 10   98.38     LegendNANA
07:00 3.1 -2.6 66 0.0 32 19   98.42     LegendNANA
08:00 4.6 -2.1 62 0.0 32 16   98.47     LegendNANA
09:00 5.9 -2.0 57 0.0 29 16   98.48     LegendNANA
10:00 7.4 -5.4 40 0.0 31 19   98.48     LegendNANA
11:00 7.3 -6.4 37 0.0 32 23   98.50     LegendNANA
12:00 7.4 -5.2 40 0.0 31 22   98.53     LegendNANA
13:00 8.8 -4.1 40 0.0 32 15   98.51     LegendNANA
14:00 9.4 -2.7 42 0.0 30 19   98.54     LegendNANA
15:00 9.3 -2.1 45 0.0 32 17   98.56     LegendNANA
16:00 10.1 -1.9 43 0.0 32 16   98.57     LegendNANA
17:00 9.9 -0.5 49 0.0 1 16   98.60     LegendNANA
18:00 8.2 -0.4 55 0.0 3 13   98.66     LegendNANA
19:00 6.3 0.2 65 0.0 3 14   98.75     LegendNANA
20:00 4.9 0.0 70 0.0 3 10   98.80     LegendNANA
21:00 3.6 -0.6 74 0.0 3 8   98.87     LegendNANA
22:00 1.7 -0.9 83 0.0 2 4   98.90     LegendNANA
23:00 2.1 -0.1 85 0.0 30 4   98.93     LegendNANA

Notes on Data Quality.

Legend

  • E = Estimated
  • M = Missing
  • NA = Not Available*
  • [empty] = Indicates an unobserved value
Date modified: